STARLINK-1666, 46357

Orbit data source: Space-Track

STARLINK-1666, 46357 is a payload satellite owned by SpaceX/Seattle (US) in LEO that was launched on Thu, 03 Sep 2020 UTC via an FALCON 9 launch vehicle from the Air Force Eastern Test Range (AFETR). Payloads include a variety of satellites, spacecraft, and rockets equipped with specific instruments for various scientific and technological missions. These include communications satellites like Starlink; space stations such as the ISS; scientific satellites like the Hubble; Earth observation satellites from companies like Planet Labs, Umbra, and HawkEye 360; GPS; miniature CubeSats for education and research; and military/defense satellites.

Loading next visibility...
STARLINK-1666 details
Identifier
46357, 2020-062AJ
Orbit
LEO
Last TLE update14 hours ago
Origin
Flag of USSpaceX/Seattle (US)
ManufacturerSpaceX/Seattle
MissionOperational Commercial Communications
Bus & MotorSTARLINK, Unknown motor
Mass260 kg wet, ~248 kg dry
Launch date (UTC)
2020-09-03 (4 years ago)
Launch vehicle
FALCON 9
Launch site
Air Force Eastern Test Range (AFETR)
Object type
Payload
Rocket body
Debris
Shape & HBRBox + 1 Pan, 8.86 m
Radar Cross Section13.562 m², Large (>1 m²)

Expand to show TLE details & history

TLE from 14 hours ago
0 STARLINK-1666
1 46357U 20062AJ  24360.83030528  .00018388  00000-0  12508-2 0  9995
2 46357  53.0524 166.7333 0001623  84.8575 275.2599 15.06380036238626
Epoch: 2024-12-25T19:55Z
Definitive object data (Epoch: 2024-12-25T19:55:38.376Z)
Latitude-0.00002°
Longitude133.00496°
Altitude548.049 km
Speed7.589 km/s
True Right ascension11h 06m 55s
True Declination0° 00' 00"
Sunlit
Object was in daylight at TLE epoch
Visualization TLE readout
Latitude-31.47632°
Longitude103.10203°
Altitude557.589 km
Speed7.582 km/s
Apparent Right ascension07h 43m 50s
Apparent Declination-81° 45' 59"
Sunlit
Object is in daylight
Visualization observer readout
Local Sidereal Time09:25:50
Azimuth184.188° SSW
Elevation-32.406°
Doppler factor1
Orbital elements
Apogee altitude548.668 km
Perigee altitude546.42 km
Semi-major axis6,925.681 km
Eccentricity0.0001623
Inclination53.0524°
RAAN166.7333°
Arg. of periapsis84.8575°
True anomaly275.24138°
Mean anomaly275.2599°
Eccentric anomaly275.25064°
Mean motion3.76573 °/min
BSTAR0.0012508
Orbital period95.6 mins
Loading maneuver chart data...
Loading historical data...
Loading historical data...
Loading historical data...
Loading historical data...
Loading historical data...
Loading historical data...
Loading historical data...

STARLINK-1666 Visibility forecast

Observer location: undefined°, undefined

Span
Click to sort rows by Start time (UTC) header in descending order
Start Az.
Max El. time (UTC)
Max El. Az.
Max El.
End time (UTC)
End Az.
7 mins2024-12-26 13:35:43.231Z211.173° SW2024-12-26 13:39:43.231Z131.665° SE38.122°2024-12-26 13:42:43.231Z62.788° ENE
5 mins2024-12-26 15:17:43.231Z294.275° NW2024-12-26 15:19:43.231Z342.834° N25°2024-12-26 15:22:43.231Z32.061° NE
6 mins2024-12-26 20:18:43.231Z325.505° NNW2024-12-26 20:20:43.231Z10.918° NNE37.687°2024-12-26 20:24:43.231Z111.919° ESE
4 mins2024-12-26 21:58:43.231Z263.787° W2024-12-26 22:00:43.231Z223.919° SW19.89°2024-12-26 22:02:43.231Z189.524° SSW
|